TECHNOSAT (42829 NORAD) Tracking and Keplerian Element Data

This shows tracking and keplerian element data for the satellite.

Feedback or suggestion? Click here.




ElementValue
Catalog42829
NameTECHNOSAT
Epoch Orbit5488
Epoch Day198.76856782
Epoch Year2018
RAAN99.9665
Inclination97.5939
Eccentricity0.0015836
Argument of Perigee96.9716
Mean Anonmoly263.3305
Mean Motion14.90837338
Decay Rate3.7E-07
L11 42829U 17042E 18198.76856782 .00000037 00000-0 91371-5 0 9991
L22 42829 97.5939 99.9665 0015836 96.9716 263.3305 14.90837338 54887

Live tracking and technical data element details for TECHNOSAT (NORAD 42829). TECHNOSAT can be tracked NOW for your location showing map with azimuth and elevation plus other details from your city location.

Track the satellite on the map from your city or location and see movement details for azimuth, elevation, latitude, longitude, range, height, and movement on the map or in text.







IsCatalogInMostPopularTable: catalog: 42829, numindb: 82
Update: records affected: 1



GetName: 42829 TECHNOSAT

Hit Count: updated at: Fri, 20 Jul 2018 20:32:25 GMT